Tracking 19847 objects as of 15-Sep-2019
HD Live streaming from Space Station
objects crossing your sky now

COSMOS 534

Track COSMOS 534 now!
10-day predictions
COSMOS 534 is classified as:


NORAD ID: 6269
Int'l Code: 1972-087G
Perigee: 1,355.5 km
Apogee: 1,474.8 km
Inclination: 74.0 °
Period: 114.0 minutes
Semi major axis: 7786 km
RCS: 0.7724 m2 (medium)
Launch date: November 1, 1972
Source: Commonwealth of Independent States (former USSR) (CIS)
Launch site: PLESETSK MISSILE AND SPACE COMPLEX (PKMTR)
aabbcc
Your satellite tracking list
Your tracking list is empty




NASA's NSSDC Master Catalog

Two Line Element Set (TLE):
1  6269U 72087G   19257.90484640 +.00000001 +00000-0 +94158-4 0  9998
2  6269 074.0360 160.9429 0076585 339.4077 090.6152 12.63626567161960
Source of the keplerian elements: AFSPC